Weather History for Kivalina, AK

Change the Weather History Date:

Monday, April 22, 2013

  Actual Average Record
Temperature  
Mean Temperature 21 °F -  
Max Temperature 27 °F - - ()
Min Temperature 15 °F - - ()
Degree Days  
Heating Degree Days 44    
Moisture  
Dew Point 18 °F    
Average Humidity 89    
Maximum Humidity 96    
Minimum Humidity 81    
Precipitation  
Precipitation 0.05 in - - ()
Sea Level Pressure  
Sea Level Pressure 30.26 in    
Wind  
Wind Speed 21 mph (SSE)    
Max Wind Speed 24 mph    
Max Gust Speed 29 mph    
Visibility 4 miles    
Events Fog , Snow    
T = Trace of Precipitation, MM = Missing Value Source: NWS Daily Summary

Daily Weather History Graph

Daily Weather History Graph

Search for Another Location

Airport:

Trip Planner

Search our weather history database for the weather conditions in past years. The results will help you decide how hot, cold, wet, or windy it might be!

Date:

Astronomy

Apr. 22, 2013 Rise Set
Actual Time 6:36 AM AKDT 11:19 PM AKDT
Civil Twilight 5:17 AM AKDT 12:40 AM AKDT
Nautical Twilight 3:29 AM AKDT Sun does not rise
Astronomical Twilight Sun does not rise Sun does not rise
Moon 7:06 PM AKDT (4/22) 6:08 AM AKDT (4/22)
Length of Visible Light 19h 23m
Length of Day
16h 43m
Waxing Gibbous, 89% of the Moon is Illuminated
Apr 22
Waxing Gibbous
Apr 25
Full
May 2
Last Quarter
May 9
New
May 17
First Quarter

Hourly Weather History & Observations

Time (AKDT) Temp. Windchill Dew Point Humidity Pressure Visibility Wind Dir Wind Speed Gust Speed Precip Events Conditions
12:53 AM 15.1 °F -3.3 °F 10.9 °F 84% 30.34 in 10.0 mi SSE 23.0 mph - N/A   Overcast
2:53 AM 17.1 °F 1.0 °F 12.9 °F 84% 30.33 in 10.0 mi SSE 18.4 mph - N/A   Overcast
3:53 AM 18.0 °F 1.3 °F 12.9 °F 81% 30.32 in 10.0 mi SSE 20.7 mph - N/A   Overcast
4:53 AM 17.1 °F 1.0 °F 12.9 °F 84% 30.32 in 10.0 mi SSE 18.4 mph - N/A   Overcast
5:53 AM 17.1 °F 0.6 °F 12.9 °F 84% 30.31 in 10.0 mi SSE 19.6 mph - N/A   Overcast
6:53 AM 19.0 °F 4.0 °F 14.0 °F 81% 30.30 in 10.0 mi SSE 17.3 mph - N/A   Overcast
7:53 AM 19.0 °F 4.0 °F 14.0 °F 81% 30.29 in 10.0 mi SSE 17.3 mph - N/A   Overcast
8:53 AM 19.0 °F 2.7 °F 15.1 °F 85% 30.28 in 10.0 mi SSE 20.7 mph - N/A   Overcast
9:53 AM 19.0 °F 2.7 °F 14.0 °F 81% 30.28 in 7.0 mi SSE 20.7 mph - 0.00 in   Overcast
10:25 AM 19.4 °F 2.1 °F 15.8 °F 86% 30.28 in 1.8 mi SSE 24.2 mph 28.8 mph 0.00 in Snow Light Snow
10:32 AM 19.4 °F 2.5 °F 15.8 °F 86% 30.28 in 0.8 mi SSE 23.0 mph - 0.00 in Snow Light Snow
10:44 AM 19.4 °F 3.2 °F 15.8 °F 86% 30.28 in 1.8 mi SSE 20.7 mph - 0.00 in Snow Light Snow
10:50 AM 19.4 °F 3.2 °F 15.8 °F 86% 30.28 in 3.0 mi SSE 20.7 mph - 0.00 in Snow Light Snow
10:51 AM 19.0 °F 2.7 °F 15.1 °F 85% 30.28 in 3.0 mi SSE 20.7 mph - 0.00 in Snow Light Snow
10:57 AM 19.4 °F 3.2 °F 15.8 °F 86% 30.28 in 1.8 mi SSE 20.7 mph - 0.00 in Snow Light Snow
11:09 AM 17.6 °F 0.9 °F 15.8 °F 93% 30.27 in 0.8 mi SSE 20.7 mph - 0.00 in Snow Light Snow
11:53 AM 18.0 °F 0.9 °F 15.1 °F 88% 30.27 in 0.8 mi SSE 21.9 mph - 0.00 in Snow Light Snow
12:53 PM 18.0 °F 0.9 °F 16.0 °F 92% 30.27 in 0.8 mi SSE 21.9 mph - 0.01 in Snow Light Snow
1:53 PM 19.0 °F 2.0 °F 17.1 °F 92% 30.26 in 0.5 mi SSE 23.0 mph - 0.02 in Fog , Snow Snow
2:43 PM 19.4 °F 2.5 °F 17.6 °F 93% 30.25 in 0.5 mi SSE 23.0 mph - 0.01 in Fog , Snow Light Snow
2:51 PM 19.4 °F 2.5 °F 17.6 °F 93% 30.25 in 0.5 mi SSE 23.0 mph - 0.01 in Fog , Snow Light Snow
2:53 PM 19.9 °F 3.2 °F 18.0 °F 92% 30.25 in 0.5 mi SSE 23.0 mph - 0.01 in Fog , Snow Light Snow
3:46 PM 21.2 °F 4.5 °F 19.4 °F 93% 30.24 in 0.2 mi SSE 24.2 mph - 0.00 in Fog , Snow Light Snow
3:53 PM 21.0 °F 5.0 °F 19.0 °F 92% 30.24 in 0.5 mi SSE 21.9 mph - 0.00 in Fog , Snow Light Snow
4:14 PM 21.2 °F 4.5 °F 19.4 °F 93% 30.24 in 0.5 mi SSE 24.2 mph - 0.00 in Fog , Snow Light Snow
4:36 PM 21.2 °F 5.2 °F 19.4 °F 93% 30.24 in 1.2 mi South 21.9 mph - 0.00 in   Overcast
4:51 PM 23.0 °F 7.6 °F 21.2 °F 93% 30.24 in 2.5 mi South 21.9 mph - 0.00 in   Overcast
4:53 PM 23.0 °F 8.0 °F 21.0 °F 92% 30.25 in 2.5 mi South 20.7 mph - 0.00 in Snow Light Snow
5:14 PM 23.0 °F 8.7 °F 21.2 °F 93% 30.24 in 4.0 mi South 18.4 mph - 0.00 in   Overcast
5:53 PM 25.0 °F 10.2 °F 23.0 °F 92% 30.23 in 4.0 mi South 21.9 mph - 0.01 in Snow Light Snow
6:18 PM 24.8 °F 10.7 °F 23.0 °F 93% 30.23 in 5.0 mi South 19.6 mph - 0.00 in   Overcast
6:53 PM 25.0 °F 10.2 °F 23.0 °F 92% 30.23 in 4.0 mi South 21.9 mph - 0.00 in   Overcast
7:53 PM 26.1 °F 12.0 °F 24.1 °F 92% 30.22 in 5.0 mi South 20.7 mph - 0.00 in   Overcast
8:19 PM 26.6 °F 13.8 °F 24.8 °F 93% 30.22 in 5.0 mi South 17.3 mph - 0.00 in   Overcast
8:32 PM 26.6 °F 13.8 °F 24.8 °F 93% 30.22 in 8.0 mi South 17.3 mph - 0.00 in   Overcast
8:53 PM 27.0 °F 14.3 °F 26.1 °F 96% 30.23 in 8.0 mi South 17.3 mph - 0.00 in   Overcast
9:53 PM 27.0 °F 14.7 °F 25.0 °F 92% 30.22 in 9.0 mi South 16.1 mph - N/A   Overcast
11:53 PM 27.0 °F 13.9 °F 25.0 °F 92% 30.22 in 9.0 mi South 18.4 mph - N/A   Overcast